EDT,Max TemperatureF,Mean TemperatureF,Min TemperatureF,Max Dew PointF,MeanDew PointF,Min DewpointF,Max Humidity, Mean Humidity, Min Humidity, Max Sea Level PressureIn, Mean Sea Level PressureIn, Min Sea Level PressureIn, Max VisibilityMiles, Mean VisibilityMiles, Min VisibilityMiles, Max Wind SpeedMPH, Mean Wind SpeedMPH, Max Gust SpeedMPH,PrecipitationIn, CloudCover, Events, WindDirDegrees
2013-5-1,78,66,53,57,54,50,94,63,44,30.20,30.14,30.07,10,10,10,9,4,,0.00,1,,114
2013-5-2,75,64,53,54,50,48,82,60,41,30.23,30.16,30.10,10,10,7,9,4,,0.00,1,,123
2013-5-3,75,65,55,55,50,41,82,57,38,30.11,30.04,29.96,10,10,7,17,7,25,0.00,1,,132
2013-5-4,71,62,53,52,44,36,94,58,35,30.02,29.96,29.91,10,9,4,16,9,23,0.00,4,,106
2013-5-5,53,50,48,52,48,46,94,93,87,29.97,29.89,29.85,10,8,3,16,9,23,0.00,8,,74
2013-5-6,66,58,50,54,50,45,100,89,64,29.91,29.86,29.79,10,9,1,16,8,26,0.00,7,,61
2013-5-7,68,56,44,57,51,43,100,86,60,29.98,29.94,29.90,10,6,0,8,1,,0.00,7,,1
2013-5-8,68,60,53,59,56,52,100,90,68,30.05,29.99,29.92,10,6,0,10,2,,0.00,7,,252
2013-5-9,77,64,51,59,55,50,100,67,44,30.09,30.04,29.99,10,10,7,9,4,,0.00,1,,219
2013-5-10,69,64,60,61,58,54,94,79,60,30.03,29.95,29.89,10,10,4,15,8,22,0.00,6,,202
2013-5-11,62,56,51,59,53,46,94,87,67,29.98,29.93,29.89,10,8,1,15,6,17,0.00,7,,263
2013-5-12,59,50,41,50,35,28,94,58,34,30.15,30.08,29.99,10,10,10,17,7,21,0.00,3,,287
2013-5-13,62,50,39,37,32,28,75,52,30,30.22,30.17,30.14,10,10,10,17,5,23,0.00,1,,268
2013-5-14,78,58,39,55,45,36,93,58,39,30.18,30.07,29.92,10,10,7,18,6,24,0.00,1,,197
2013-5-15,82,74,66,57,53,48,64,50,30,30.05,29.99,29.93,10,10,7,17,11,25,0.00,0,,235
2013-5-16,75,68,62,63,56,48,94,69,49,30.02,29.99,29.95,10,9,7,16,7,21,0.00,2,,224
2013-5-17,77,68,59,63,60,57,100,78,53,30.09,30.05,30.02,10,8,3,8,2,,0.00,4,,191
2013-5-18,75,68,62,66,64,63,100,86,69,30.06,30.03,29.98,10,8,0,9,3,,0.00,8,,156
2013-5-19,82,73,64,68,65,63,94,82,51,30.04,29.99,29.94,10,9,4,13,4,17,0.00,4,,190
2013-5-20,84,74,64,68,63,59,88,70,54,30.08,30.01,29.96,10,10,5,12,5,17,0.00,3,,193
2013-5-21,86,75,64,66,63,57,88,73,45,30.02,29.96,29.89,10,9,5,25,7,48,0.00,1,,201
2013-5-22,77,70,62,64,61,57,94,76,54,29.92,29.88,29.81,10,10,2,21,7,33,0.00,4,,203
2013-5-23,73,65,57,63,58,54,94,79,56,30.04,29.94,29.88,10,10,3,18,7,29,0.00,5,,262
2013-5-24,64,56,48,55,43,41,94,63,42,30.31,30.24,30.04,10,10,5,14,7,22,0.00,4,,354
2013-5-25,66,54,41,48,43,37,100,66,39,30.37,30.31,30.22,10,10,7,6,1,,0.00,3,,80
2013-5-26,71,61,51,52,49,45,94,64,43,30.30,30.26,30.19,10,10,7,6,2,,0.00,5,,91
2013-5-27,84,68,53,55,52,48,94,58,30,30.21,30.12,30.05,10,10,10,15,6,23,0.00,2,,188
2013-5-28,84,76,68,59,57,52,68,53,33,30.13,30.07,30.02,10,10,7,17,9,24,0.00,1,,205
2013-5-29,84,76,68,64,60,55,78,58,45,30.17,30.12,30.06,10,10,7,14,7,20,0.00,2,,189
2013-5-30,87,76,64,63,60,55,83,58,37,30.20,30.13,30.07,10,10,5,15,6,20,0.00,1,,177
2013-5-31,86,77,68,68,61,57,88,63,40,30.13,30.08,30.01,10,10,7,21,7,28,0.00,2,,182